カタログに戻る

FREGAT DEB

運用中UNKNOWN
NORAD 46252·DEBRIS·🇷🇺 Russia

打ち上げ Jul 18, 2011 から Baikonur Cosmodrome

Loading…

次のパス (今後24時間)

TLE

最新Source: Space-Track

元期: Sep 12, 2026, 08:51 UTC

1 46252U 11037KN  26255.36905172  .00016713  00000-0  80345-1 0  9993
2 46252  50.7517 275.4437 1693650 293.7790  49.4658 10.56375712222891

AllMySatでFREGAT DEBをリアルタイム追跡

Download on the App Store